TimePDT,TemperatureF,Dew PointF,Humidity,Sea Level PressureIn,VisibilityMPH,Wind Direction,Wind SpeedMPH,Gust SpeedMPH,PrecipitationIn,Events,Conditions,WindDirDegrees,DateUTC
12:15 AM,53.6,32.0,44,29.97,10.0,ESE,4.6,-,N/A,,Clear,110,2013-05-25 07:15:00
12:35 AM,51.8,32.0,47,29.97,10.0,Calm,Calm,-,N/A,,Clear,0,2013-05-25 07:35:00
12:55 AM,53.6,32.0,44,29.97,10.0,ESE,5.8,-,N/A,,Clear,110,2013-05-25 07:55:00
1:15 AM,53.6,32.0,44,29.97,10.0,ESE,3.5,-,N/A,,Clear,110,2013-05-25 08:15:00
1:35 AM,53.6,32.0,44,29.97,10.0,ESE,3.5,-,N/A,,Clear,110,2013-05-25 08:35:00
1:55 AM,53.6,32.0,44,29.97,10.0,Calm,Calm,-,N/A,,Clear,0,2013-05-25 08:55:00
2:15 AM,53.6,32.0,44,29.97,10.0,Calm,Calm,-,N/A,,Clear,0,2013-05-25 09:15:00
2:35 AM,53.6,33.8,47,29.97,10.0,Calm,Calm,-,N/A,,Clear,0,2013-05-25 09:35:00
2:55 AM,53.6,32.0,44,29.97,10.0,Calm,Calm,-,N/A,,Clear,0,2013-05-25 09:55:00
3:15 AM,53.6,32.0,44,29.97,10.0,ESE,5.8,-,N/A,,Clear,110,2013-05-25 10:15:00
3:35 AM,53.6,32.0,44,29.96,9.0,East,5.8,-,N/A,,Clear,100,2013-05-25 10:35:00
3:55 AM,53.6,32.0,44,29.96,9.0,East,5.8,-,N/A,,Clear,100,2013-05-25 10:55:00
4:15 AM,53.6,32.0,44,29.96,10.0,East,6.9,-,N/A,,Clear,100,2013-05-25 11:15:00
4:35 AM,53.6,32.0,44,29.96,8.0,East,5.8,-,N/A,,Clear,100,2013-05-25 11:35:00
4:55 AM,53.6,32.0,44,29.97,9.0,East,5.8,-,N/A,,Clear,100,2013-05-25 11:55:00
5:15 AM,53.6,32.0,44,29.97,9.0,East,5.8,-,N/A,,Clear,100,2013-05-25 12:15:00
5:35 AM,53.6,32.0,44,29.97,8.0,East,5.8,-,N/A,,Clear,100,2013-05-25 12:35:00
5:55 AM,53.6,30.2,41,29.97,7.0,East,5.8,-,N/A,,Clear,100,2013-05-25 12:55:00
6:15 AM,53.6,32.0,44,29.97,8.0,East,5.8,-,N/A,,Clear,100,2013-05-25 13:15:00
6:35 AM,55.4,32.0,41,29.98,7.0,East,5.8,-,N/A,,Clear,100,2013-05-25 13:35:00
6:55 AM,55.4,32.0,41,29.98,6.0,East,5.8,-,N/A,,Clear,100,2013-05-25 13:55:00
7:10 AM,55.4,32.0,41,29.99,7.0,East,5.8,-,N/A,,Clear,100,2013-05-25 14:10:00
7:35 AM,57.2,32.0,38,29.99,6.0,ESE,3.5,-,N/A,,Clear,110,2013-05-25 14:35:00
7:55 AM,57.2,33.8,41,29.99,10.0,ESE,3.5,-,N/A,,Clear,120,2013-05-25 14:55:00
8:15 AM,57.2,33.8,41,29.99,10.0,SE,3.5,-,N/A,,Clear,130,2013-05-25 15:15:00
8:35 AM,59.0,33.8,39,29.99,10.0,SSE,4.6,-,N/A,,Clear,150,2013-05-25 15:35:00
8:55 AM,59.0,33.8,39,30.00,10.0,Calm,Calm,-,N/A,,Clear,0,2013-05-25 15:55:00
9:15 AM,60.8,32.0,34,30.00,10.0,Calm,Calm,-,N/A,,Clear,0,2013-05-25 16:15:00
9:35 AM,62.6,32.0,32,30.00,10.0,SSW,5.8,-,N/A,,Clear,200,2013-05-25 16:35:00
9:55 AM,60.8,32.0,34,30.00,10.0,SW,8.1,-,N/A,,Clear,220,2013-05-25 16:55:00
10:15 AM,60.8,32.0,34,30.00,10.0,SSW,6.9,-,N/A,,Clear,210,2013-05-25 17:15:00
10:35 AM,62.6,33.8,34,30.00,10.0,SW,8.1,-,N/A,,Clear,220,2013-05-25 17:35:00
10:55 AM,62.6,33.8,34,30.00,10.0,Calm,Calm,-,N/A,,Clear,0,2013-05-25 17:55:00
11:15 AM,62.6,33.8,34,30.01,10.0,SW,6.9,-,N/A,,Clear,220,2013-05-25 18:15:00
11:35 AM,64.4,35.6,34,30.01,10.0,Calm,Calm,-,N/A,,Clear,0,2013-05-25 18:35:00
11:55 AM,64.4,35.6,34,30.01,10.0,SSW,4.6,-,N/A,,Clear,200,2013-05-25 18:55:00
12:15 PM,64.4,33.8,32,30.01,9.0,Calm,Calm,-,N/A,,Clear,0,2013-05-25 19:15:00
12:35 PM,66.2,32.0,28,30.01,10.0,SSE,5.8,-,N/A,,Clear,150,2013-05-25 19:35:00
12:55 PM,64.4,35.6,34,30.01,10.0,South,5.8,-,N/A,,Clear,190,2013-05-25 19:55:00
1:15 PM,66.2,32.0,28,30.02,10.0,Calm,Calm,-,N/A,,Clear,0,2013-05-25 20:15:00
1:35 PM,64.4,33.8,32,30.02,10.0,South,4.6,-,N/A,,Clear,190,2013-05-25 20:35:00
1:55 PM,66.2,32.0,28,30.02,10.0,WSW,8.1,-,N/A,,Clear,240,2013-05-25 20:55:00
2:15 PM,66.2,32.0,28,30.02,9.0,SSW,6.9,-,N/A,,Clear,200,2013-05-25 21:15:00
2:35 PM,66.2,28.4,24,30.02,10.0,Calm,Calm,-,N/A,,Clear,0,2013-05-25 21:35:00
2:55 PM,68.0,32.0,26,30.02,10.0,South,3.5,-,N/A,,Clear,180,2013-05-25 21:55:00
3:15 PM,66.2,32.0,28,30.01,10.0,SW,5.8,-,N/A,,Clear,220,2013-05-25 22:15:00
3:35 PM,68.0,32.0,26,30.01,10.0,SW,6.9,-,N/A,,Clear,220,2013-05-25 22:35:00
3:55 PM,68.0,32.0,26,30.01,10.0,Calm,Calm,-,N/A,,Clear,0,2013-05-25 22:55:00
4:15 PM,66.2,32.0,28,30.01,10.0,SSW,6.9,-,N/A,,Clear,200,2013-05-25 23:15:00
4:30 PM,66.2,28.4,24,30.01,10.0,Calm,Calm,-,N/A,,Clear,0,2013-05-25 23:30:00
4:55 PM,66.2,32.0,28,30.00,10.0,SSE,5.8,-,N/A,,Clear,160,2013-05-25 23:55:00
5:15 PM,66.2,32.0,28,30.00,10.0,South,3.5,-,N/A,,Clear,190,2013-05-26 00:15:00
5:35 PM,66.2,32.0,28,30.00,10.0,Calm,Calm,-,N/A,,Clear,0,2013-05-26 00:35:00
5:55 PM,64.4,32.0,30,30.00,10.0,Calm,Calm,-,N/A,,Clear,0,2013-05-26 00:55:00
6:15 PM,64.4,32.0,30,30.00,10.0,SSW,3.5,-,N/A,,Clear,200,2013-05-26 01:15:00
6:35 PM,64.4,32.0,30,30.00,10.0,Calm,Calm,-,N/A,,Clear,0,2013-05-26 01:35:00
6:55 PM,64.4,32.0,30,30.00,10.0,Calm,Calm,-,N/A,,Clear,0,2013-05-26 01:55:00
7:15 PM,64.4,33.8,32,30.00,10.0,Calm,Calm,-,N/A,,Clear,0,2013-05-26 02:15:00
7:35 PM,62.6,33.8,34,30.00,10.0,Calm,Calm,-,N/A,,Clear,0,2013-05-26 02:35:00
7:55 PM,60.8,35.6,39,30.00,10.0,Calm,Calm,-,N/A,,Clear,0,2013-05-26 02:55:00
8:15 PM,59.0,35.6,42,30.01,10.0,Calm,Calm,-,N/A,,Clear,0,2013-05-26 03:15:00
8:35 PM,57.2,35.6,44,30.01,10.0,Calm,Calm,-,N/A,,Clear,0,2013-05-26 03:35:00
8:55 PM,57.2,35.6,44,30.01,10.0,Calm,Calm,-,N/A,,Clear,0,2013-05-26 03:55:00
9:15 PM,57.2,35.6,44,30.01,10.0,Calm,Calm,-,N/A,,Clear,0,2013-05-26 04:15:00
9:35 PM,57.2,35.6,44,30.01,10.0,Calm,Calm,-,N/A,,Clear,0,2013-05-26 04:35:00
9:55 PM,55.4,37.4,51,30.02,10.0,Calm,Calm,-,N/A,,Clear,0,2013-05-26 04:55:00
10:15 PM,55.4,37.4,51,30.02,10.0,Calm,Calm,-,N/A,,Clear,0,2013-05-26 05:15:00
10:35 PM,53.6,37.4,54,30.03,10.0,SE,4.6,-,N/A,,Clear,140,2013-05-26 05:35:00
10:55 PM,53.6,39.2,58,30.03,10.0,SE,3.5,-,N/A,,Clear,130,2013-05-26 05:55:00
11:15 PM,53.6,39.2,58,30.03,10.0,SE,4.6,-,N/A,,Clear,130,2013-05-26 06:15:00
11:35 PM,53.6,41.0,62,30.03,10.0,SE,5.8,-,N/A,,Clear,130,2013-05-26 06:35:00
11:55 PM,53.6,41.0,62,30.03,10.0,SE,4.6,-,N/A,,Clear,140,2013-05-26 06:55:00